TimeEST,TemperatureF,Dew PointF,Humidity,Sea Level PressureIn,VisibilityMPH,Wind Direction,Wind SpeedMPH,Gust SpeedMPH,PrecipitationIn,Events,Conditions,WindDirDegrees,DateUTC
12:15 AM,15.8,1.4,53,30.41,10.0,SE,8.1,-,N/A,,Overcast,140,2013-01-25 05:15:00
12:34 AM,15.8,3.2,58,30.40,10.0,SE,6.9,-,N/A,,Overcast,140,2013-01-25 05:34:00
12:55 AM,15.8,1.4,53,30.38,10.0,ESE,9.2,-,N/A,,Overcast,120,2013-01-25 05:55:00
1:15 AM,15.8,1.4,53,30.38,10.0,ESE,8.1,-,N/A,,Mostly Cloudy,120,2013-01-25 06:15:00
1:34 AM,15.8,3.2,58,30.37,10.0,ESE,6.9,-,N/A,,Mostly Cloudy,120,2013-01-25 06:34:00
1:55 AM,15.8,3.2,58,30.37,10.0,SE,6.9,-,N/A,,Overcast,130,2013-01-25 06:55:00
2:15 AM,15.8,5.0,62,30.35,10.0,ESE,10.4,-,N/A,,Overcast,120,2013-01-25 07:15:00
2:34 AM,15.8,5.0,62,30.36,10.0,SE,5.8,-,N/A,,Overcast,130,2013-01-25 07:34:00
2:55 AM,15.8,5.0,62,30.35,10.0,SE,5.8,-,N/A,,Overcast,140,2013-01-25 07:55:00
3:15 AM,15.8,6.8,68,30.33,10.0,SE,8.1,-,N/A,,Overcast,130,2013-01-25 08:15:00
3:34 AM,15.8,6.8,68,30.31,10.0,SSE,8.1,-,N/A,,Overcast,150,2013-01-25 08:34:00
3:55 AM,15.8,6.8,68,30.30,10.0,SE,9.2,-,N/A,,Overcast,140,2013-01-25 08:55:00
4:14 AM,15.8,6.8,68,30.28,10.0,SE,8.1,-,N/A,,Overcast,140,2013-01-25 09:14:00
4:35 AM,15.8,8.6,73,30.26,10.0,SE,8.1,-,N/A,,Overcast,140,2013-01-25 09:35:00
4:55 AM,15.8,8.6,73,30.25,10.0,SE,6.9,-,N/A,,Mostly Cloudy,140,2013-01-25 09:55:00
5:15 AM,15.8,8.6,73,30.23,10.0,SE,9.2,-,N/A,,Mostly Cloudy,140,2013-01-25 10:15:00
5:35 AM,15.8,8.6,73,30.22,10.0,SE,10.4,-,N/A,,Overcast,140,2013-01-25 10:35:00
5:55 AM,15.8,8.6,73,30.20,10.0,SSE,8.1,-,N/A,,Mostly Cloudy,150,2013-01-25 10:55:00
6:14 AM,15.8,8.6,73,30.18,10.0,SE,6.9,-,N/A,,Mostly Cloudy,140,2013-01-25 11:14:00
6:35 AM,17.6,8.6,68,30.18,10.0,SE,11.5,-,N/A,,Overcast,140,2013-01-25 11:35:00
6:55 AM,17.6,8.6,68,30.18,10.0,SSE,5.8,-,N/A,,Overcast,150,2013-01-25 11:55:00
7:14 AM,15.8,10.4,79,30.18,3.0,SSE,8.1,-,N/A,Snow,Light Snow,160,2013-01-25 12:14:00
7:35 AM,15.8,12.2,86,30.16,2.0,SSE,8.1,-,N/A,Snow,Light Snow,150,2013-01-25 12:35:00
7:55 AM,15.8,12.2,86,30.15,10.0,SE,9.2,-,N/A,,Overcast,140,2013-01-25 12:55:00
8:35 AM,15.8,12.2,86,30.14,10.0,SSE,6.9,-,N/A,,Overcast,150,2013-01-25 13:35:00
8:55 AM,17.6,10.4,73,30.14,10.0,SSE,4.6,-,N/A,,Overcast,160,2013-01-25 13:55:00
9:14 AM,17.6,10.4,73,30.13,10.0,SSE,6.9,-,N/A,,Overcast,160,2013-01-25 14:14:00
9:35 AM,17.6,10.4,73,30.13,5.0,South,3.5,-,N/A,Snow,Light Snow,170,2013-01-25 14:35:00
9:55 AM,17.6,10.4,73,30.11,5.0,SSE,9.2,-,N/A,,Haze,160,2013-01-25 14:55:00
10:14 AM,17.6,12.2,79,30.11,5.0,South,6.9,-,N/A,Snow,Light Snow,170,2013-01-25 15:14:00
10:35 AM,17.6,12.2,79,30.10,10.0,South,8.1,-,N/A,,Overcast,170,2013-01-25 15:35:00
10:55 AM,17.6,14.0,86,30.10,5.0,South,8.1,-,N/A,Snow,Light Snow,170,2013-01-25 15:55:00
11:15 AM,19.4,14.0,80,30.10,5.0,South,8.1,-,N/A,Snow,Light Snow,190,2013-01-25 16:15:00
11:35 AM,19.4,14.0,80,30.09,5.0,South,9.2,-,N/A,Snow,Light Snow,190,2013-01-25 16:35:00
11:54 AM,19.4,14.0,80,30.07,4.0,South,6.9,-,N/A,Snow,Light Snow,180,2013-01-25 16:54:00
12:15 PM,19.4,15.8,86,30.06,3.0,SSW,10.4,-,N/A,Snow,Light Snow,200,2013-01-25 17:15:00
12:35 PM,19.4,15.8,86,30.04,1.8,South,6.9,-,N/A,Snow,Light Snow,190,2013-01-25 17:35:00
12:54 PM,19.4,15.8,86,30.03,2.5,SSW,9.2,-,N/A,Snow,Light Snow,200,2013-01-25 17:54:00
1:15 PM,19.4,15.8,86,30.01,5.0,SSW,10.4,-,N/A,Snow,Light Snow,210,2013-01-25 18:15:00
1:35 PM,19.4,15.8,86,30.00,7.0,SW,9.2,-,N/A,Snow,Light Snow,220,2013-01-25 18:35:00
1:54 PM,21.2,15.8,80,29.99,3.0,SSW,10.4,-,N/A,Snow,Light Snow,210,2013-01-25 18:54:00
2:15 PM,21.2,15.8,80,29.98,3.0,SW,9.2,-,N/A,Snow,Light Snow,220,2013-01-25 19:15:00
2:35 PM,21.2,15.8,80,29.97,4.0,SSW,8.1,-,N/A,Snow,Light Snow,200,2013-01-25 19:35:00
2:54 PM,21.2,15.8,80,29.98,7.0,SW,6.9,-,N/A,Snow,Light Snow,220,2013-01-25 19:54:00
3:15 PM,21.2,15.8,80,29.97,10.0,SW,6.9,-,N/A,Snow,Light Snow,230,2013-01-25 20:15:00
3:35 PM,21.2,15.8,80,29.97,10.0,SW,9.2,-,N/A,,Overcast,230,2013-01-25 20:35:00
3:54 PM,21.2,15.8,80,29.97,7.0,WSW,9.2,-,N/A,Snow,Light Snow,240,2013-01-25 20:54:00
4:15 PM,21.2,15.8,80,29.96,10.0,SW,10.4,-,N/A,Snow,Light Snow,230,2013-01-25 21:15:00
4:35 PM,21.2,17.6,86,29.97,10.0,SW,10.4,-,N/A,Snow,Light Snow,230,2013-01-25 21:35:00
4:55 PM,21.2,17.6,86,29.97,10.0,SW,10.4,-,N/A,,Overcast,220,2013-01-25 21:55:00
5:15 PM,21.2,17.6,86,29.98,7.0,WSW,6.9,-,N/A,,Overcast,240,2013-01-25 22:15:00
5:34 PM,21.2,17.6,86,29.98,7.0,WSW,9.2,-,N/A,Snow,Light Snow,240,2013-01-25 22:34:00
5:55 PM,21.2,17.6,86,29.98,2.5,SW,5.8,-,N/A,Snow,Light Snow,230,2013-01-25 22:55:00
6:15 PM,19.4,17.6,93,29.98,2.0,SW,6.9,-,N/A,Snow,Light Snow,230,2013-01-25 23:15:00
6:35 PM,19.4,17.6,93,29.98,2.5,WSW,5.8,-,N/A,Snow,Light Snow,240,2013-01-25 23:35:00
6:55 PM,19.4,17.6,93,29.99,4.0,SW,5.8,-,N/A,Snow,Light Snow,230,2013-01-25 23:55:00
7:15 PM,21.2,17.6,86,29.99,5.0,SW,8.1,-,N/A,Snow,Light Snow,230,2013-01-26 00:15:00
7:35 PM,21.2,17.6,86,29.99,5.0,SW,6.9,-,N/A,Snow,Light Snow,220,2013-01-26 00:35:00
7:55 PM,21.2,17.6,86,29.99,7.0,SW,6.9,-,N/A,Snow,Light Snow,230,2013-01-26 00:55:00
8:15 PM,21.2,17.6,86,29.99,7.0,SW,6.9,-,N/A,,Overcast,220,2013-01-26 01:15:00
8:35 PM,21.2,19.4,93,30.00,10.0,SW,4.6,-,N/A,,Overcast,230,2013-01-26 01:35:00
8:55 PM,21.2,19.4,93,29.99,10.0,WSW,3.5,-,N/A,,Overcast,240,2013-01-26 01:55:00
9:14 PM,21.2,19.4,93,30.00,10.0,WSW,3.5,-,N/A,,Overcast,250,2013-01-26 02:14:00
9:35 PM,21.2,19.4,93,30.00,10.0,WSW,4.6,-,N/A,,Overcast,250,2013-01-26 02:35:00
9:55 PM,21.2,19.4,93,30.00,10.0,Calm,Calm,-,N/A,,Overcast,0,2013-01-26 02:55:00
10:14 PM,21.2,19.4,93,30.00,7.0,West,3.5,-,N/A,Snow,Light Snow,260,2013-01-26 03:14:00
10:35 PM,23.0,19.4,86,30.00,7.0,WSW,4.6,-,N/A,,Overcast,240,2013-01-26 03:35:00
10:55 PM,23.0,19.4,86,30.01,5.0,WSW,5.8,-,N/A,Snow,Light Snow,240,2013-01-26 03:55:00
11:14 PM,21.2,19.4,93,30.01,5.0,WSW,4.6,-,N/A,Snow,Light Snow,240,2013-01-26 04:14:00
11:35 PM,21.2,19.4,93,30.02,5.0,WSW,3.5,-,N/A,Snow,Light Snow,240,2013-01-26 04:35:00
11:55 PM,21.2,19.4,93,30.03,5.0,Calm,Calm,-,N/A,Snow,Light Snow,0,2013-01-26 04:55:00